Time,TemperatureF,DewpointF,PressureIn,WindDirection,WindDirectionDegrees,WindSpeedMPH,WindSpeedGustMPH,Humidity,HourlyPrecipIn,Conditions,Clouds,dailyrainin,SoftwareType,DateUTC
2013-12-30 00:13:00,14.2,9.0,30.17,WNW,295,5.0,12.0,80,0.00,,,0.00,weatherlink.com 1.10,2013-12-30 06:13:00,
2013-12-30 00:28:00,14.0,9.0,30.18,NNW,327,9.0,11.0,79,0.00,,,0.00,weatherlink.com 1.10,2013-12-30 06:28:00,
2013-12-30 00:43:00,13.7,9.0,30.18,NW,306,10.0,13.0,80,0.00,,,0.00,weatherlink.com 1.10,2013-12-30 06:43:00,
2013-12-30 00:59:00,13.1,7.0,30.19,WNW,295,5.0,12.0,78,0.00,,,0.00,weatherlink.com 1.10,2013-12-30 06:59:00,
2013-12-30 01:13:00,12.6,7.0,30.19,WNW,299,4.0,12.0,77,0.00,,,0.00,weatherlink.com 1.10,2013-12-30 07:13:00,
2013-12-30 01:28:00,12.5,7.0,30.20,North,355,3.0,11.0,78,0.00,,,0.00,weatherlink.com 1.10,2013-12-30 07:28:00,
2013-12-30 01:45:00,12.1,6.0,30.20,WNW,295,10.0,12.0,77,0.00,,,0.00,weatherlink.com 1.10,2013-12-30 07:45:00,
2013-12-30 01:59:00,11.8,6.0,30.21,NW,315,4.0,12.0,78,0.00,,,0.00,weatherlink.com 1.10,2013-12-30 07:59:00,
2013-12-30 02:14:00,11.2,5.0,30.21,WNW,286,5.0,14.0,77,0.00,,,0.00,weatherlink.com 1.10,2013-12-30 08:14:00,
2013-12-30 02:29:00,10.7,5.0,30.22,NNW,338,4.0,11.0,77,0.00,,,0.00,weatherlink.com 1.10,2013-12-30 08:29:00,
2013-12-30 02:44:00,10.3,4.0,30.21,NW,312,6.0,11.0,77,0.00,,,0.00,weatherlink.com 1.10,2013-12-30 08:44:00,
2013-12-30 02:59:00,9.6,4.0,30.22,NNW,332,6.0,10.0,77,0.00,,,0.00,weatherlink.com 1.10,2013-12-30 08:59:00,
2013-12-30 03:14:00,9.2,4.0,30.23,WNW,296,7.0,12.0,78,0.00,,,0.00,weatherlink.com 1.10,2013-12-30 09:14:00,
2013-12-30 03:30:00,8.7,3.0,30.23,NW,317,4.0,11.0,79,0.00,,,0.00,weatherlink.com 1.10,2013-12-30 09:30:00,
2013-12-30 03:45:00,8.0,3.0,30.23,NNW,339,6.0,11.0,80,0.00,,,0.00,weatherlink.com 1.10,2013-12-30 09:45:00,
2013-12-30 04:00:00,7.2,2.0,30.24,WNW,288,2.0,9.0,80,0.00,,,0.00,weatherlink.com 1.10,2013-12-30 10:00:00,
2013-12-30 04:15:00,6.4,2.0,30.25,WNW,302,8.0,9.0,80,0.00,,,0.00,weatherlink.com 1.10,2013-12-30 10:15:00,
2013-12-30 04:30:00,5.8,1.0,30.25,WNW,298,2.0,9.0,80,0.00,,,0.00,weatherlink.com 1.10,2013-12-30 10:30:00,
2013-12-30 04:45:00,5.1,1.0,30.25,WNW,296,4.0,7.0,81,0.00,,,0.00,weatherlink.com 1.10,2013-12-30 10:45:00,
2013-12-30 05:00:00,4.6,0.0,30.27,NW,304,1.0,8.0,80,0.00,,,0.00,weatherlink.com 1.10,2013-12-30 11:00:00,
2013-12-30 05:17:00,4.1,-1.0,30.27,West,270,2.0,5.0,80,0.00,,,0.00,weatherlink.com 1.10,2013-12-30 11:17:00,
2013-12-30 05:31:00,3.8,-1.0,30.27,WNW,288,4.0,5.0,80,0.00,,,0.00,weatherlink.com 1.10,2013-12-30 11:31:00,
2013-12-30 05:47:00,3.4,-1.0,30.27,NW,306,2.0,5.0,80,0.00,,,0.00,weatherlink.com 1.10,2013-12-30 11:47:00,
2013-12-30 06:01:00,3.0,-2.0,30.27,NW,311,6.0,7.0,80,0.00,,,0.00,weatherlink.com 1.10,2013-12-30 12:01:00,
2013-12-30 06:16:00,2.8,-2.0,30.28,NW,308,2.0,6.0,79,0.00,,,0.00,weatherlink.com 1.10,2013-12-30 12:16:00,
2013-12-30 06:31:00,2.5,-3.0,30.29,NW,326,4.0,5.0,79,0.00,,,0.00,weatherlink.com 1.10,2013-12-30 12:31:00,
2013-12-30 06:46:00,2.4,-2.0,30.30,NW,324,1.0,5.0,80,0.00,,,0.00,weatherlink.com 1.10,2013-12-30 12:46:00,
2013-12-30 07:03:00,2.2,-3.0,30.29,NW,312,0.0,5.0,80,0.00,,,0.00,weatherlink.com 1.10,2013-12-30 13:03:00,
2013-12-30 07:17:00,2.1,-3.0,30.30,NW,319,1.0,5.0,80,0.00,,,0.00,weatherlink.com 1.10,2013-12-30 13:17:00,
2013-12-30 07:33:00,2.0,-3.0,30.30,NW,315,3.0,5.0,80,0.00,,,0.00,weatherlink.com 1.10,2013-12-30 13:33:00,
2013-12-30 07:47:00,2.2,-3.0,30.30,NW,305,0.0,5.0,80,0.00,,,0.00,weatherlink.com 1.10,2013-12-30 13:47:00,
2013-12-30 08:02:00,2.3,-3.0,30.31,NW,323,2.0,7.0,80,0.00,,,0.00,weatherlink.com 1.10,2013-12-30 14:02:00,
2013-12-30 08:17:00,2.8,-2.0,30.32,NNW,336,3.0,5.0,80,0.00,,,0.00,weatherlink.com 1.10,2013-12-30 14:17:00,
2013-12-30 08:33:00,3.1,-2.0,30.32,WNW,296,3.0,9.0,78,0.00,,,0.00,weatherlink.com 1.10,2013-12-30 14:33:00,
2013-12-30 08:48:00,4.1,-1.0,30.33,WNW,282,2.0,5.0,79,0.00,,,0.00,weatherlink.com 1.10,2013-12-30 14:48:00,
2013-12-30 09:03:00,4.7,-1.0,30.33,NW,317,1.0,6.0,77,0.00,,,0.00,weatherlink.com 1.10,2013-12-30 15:03:00,
2013-12-30 09:18:00,5.4,0.0,30.33,NW,306,4.0,7.0,78,0.00,,,0.00,weatherlink.com 1.10,2013-12-30 15:18:00,
2013-12-30 09:33:00,6.2,1.0,30.33,NNW,329,2.0,7.0,78,0.00,,,0.00,weatherlink.com 1.10,2013-12-30 15:33:00,
2013-12-30 09:48:00,6.6,1.0,30.34,NW,325,3.0,6.0,77,0.00,,,0.00,weatherlink.com 1.10,2013-12-30 15:48:00,
2013-12-30 10:04:00,7.0,2.0,30.34,West,261,4.0,4.0,79,0.00,,,0.00,weatherlink.com 1.10,2013-12-30 16:04:00,
2013-12-30 10:19:00,7.2,2.0,30.33,West,268,3.0,5.0,79,0.00,,,0.00,weatherlink.com 1.10,2013-12-30 16:19:00,
2013-12-30 10:34:00,7.6,2.0,30.32,WSW,248,1.0,8.0,78,0.00,,,0.00,weatherlink.com 1.10,2013-12-30 16:34:00,
2013-12-30 10:49:00,8.6,4.0,30.31,SSW,207,1.0,3.0,80,0.00,,,0.00,weatherlink.com 1.10,2013-12-30 16:49:00,
2013-12-30 11:04:00,9.9,6.0,30.30,WSW,252,1.0,4.0,82,0.00,,,0.00,weatherlink.com 1.10,2013-12-30 17:04:00,
2013-12-30 11:19:00,9.4,4.0,30.29,West,276,0.0,5.0,78,0.00,,,0.00,weatherlink.com 1.10,2013-12-30 17:19:00,
2013-12-30 11:35:00,10.0,5.0,30.27,WNW,296,3.0,4.0,80,0.00,,,0.00,weatherlink.com 1.10,2013-12-30 17:35:00,
2013-12-30 11:50:00,11.8,7.0,30.27,West,277,2.0,4.0,79,0.00,,,0.00,weatherlink.com 1.10,2013-12-30 17:50:00,
2013-12-30 12:05:00,12.8,6.0,30.26,SW,223,0.0,7.0,74,0.00,,,0.00,weatherlink.com 1.10,2013-12-30 18:05:00,
2013-12-30 12:20:00,13.3,6.0,30.25,WNW,297,4.0,6.0,72,0.00,,,0.00,weatherlink.com 1.10,2013-12-30 18:20:00,
2013-12-30 12:36:00,14.8,7.0,30.24,West,279,2.0,4.0,72,0.00,,,0.00,weatherlink.com 1.10,2013-12-30 18:36:00,
2013-12-30 12:50:00,15.0,7.0,30.23,WSW,242,1.0,4.0,70,0.00,,,0.00,weatherlink.com 1.10,2013-12-30 18:50:00,
2013-12-30 13:05:00,14.3,6.0,30.23,SW,226,0.0,4.0,69,0.00,,,0.00,weatherlink.com 1.10,2013-12-30 19:05:00,
2013-12-30 13:21:00,15.3,7.0,30.23,WNW,291,2.0,4.0,70,0.00,,,0.00,weatherlink.com 1.10,2013-12-30 19:21:00,
2013-12-30 13:37:00,15.9,8.0,30.23,NW,317,6.0,7.0,70,0.00,,,0.00,weatherlink.com 1.10,2013-12-30 19:37:00,
2013-12-30 13:51:00,15.3,6.0,30.22,WNW,300,1.0,6.0,66,0.00,,,0.00,weatherlink.com 1.10,2013-12-30 19:51:00,
2013-12-30 14:06:00,15.8,7.0,30.23,WNW,289,1.0,6.0,68,0.00,,,0.00,weatherlink.com 1.10,2013-12-30 20:06:00,
2013-12-30 14:21:00,15.3,6.0,30.23,WNW,291,2.0,5.0,68,0.00,,,0.00,weatherlink.com 1.10,2013-12-30 20:21:00,
2013-12-30 14:36:00,15.5,7.0,30.23,West,259,0.0,5.0,70,0.00,,,0.00,weatherlink.com 1.10,2013-12-30 20:36:00,
2013-12-30 14:51:00,15.2,8.0,30.24,WSW,242,3.0,7.0,72,0.00,,,0.00,weatherlink.com 1.10,2013-12-30 20:51:00,
2013-12-30 15:07:00,15.0,8.0,30.24,South,187,3.0,5.0,73,0.00,,,0.00,weatherlink.com 1.10,2013-12-30 21:07:00,
2013-12-30 15:22:00,15.0,7.0,30.24,WSW,244,2.0,4.0,71,0.00,,,0.00,weatherlink.com 1.10,2013-12-30 21:22:00,
2013-12-30 15:37:00,14.8,7.0,30.23,SW,223,2.0,5.0,71,0.00,,,0.00,weatherlink.com 1.10,2013-12-30 21:37:00,
2013-12-30 15:52:00,14.6,7.0,30.23,West,267,1.0,6.0,71,0.00,,,0.00,weatherlink.com 1.10,2013-12-30 21:52:00,
2013-12-30 16:07:00,14.2,6.0,30.23,SW,234,0.0,4.0,71,0.00,,,0.00,weatherlink.com 1.10,2013-12-30 22:07:00,
2013-12-30 16:22:00,13.9,7.0,30.22,West,267,1.0,4.0,73,0.00,,,0.00,weatherlink.com 1.10,2013-12-30 22:22:00,
2013-12-30 16:37:00,13.9,7.0,30.23,WSW,243,2.0,4.0,73,0.00,,,0.00,weatherlink.com 1.10,2013-12-30 22:37:00,
2013-12-30 16:53:00,14.0,7.0,30.22,WNW,284,2.0,3.0,72,0.00,,,0.00,weatherlink.com 1.10,2013-12-30 22:53:00,
2013-12-30 17:09:00,13.9,6.0,30.22,WSW,257,0.0,4.0,71,0.00,,,0.00,weatherlink.com 1.10,2013-12-30 23:09:00,
2013-12-30 17:23:00,13.7,7.0,30.21,SW,229,0.0,3.0,74,0.00,,,0.00,weatherlink.com 1.10,2013-12-30 23:23:00,
2013-12-30 17:39:00,13.7,8.0,30.21,SW,227,1.0,2.0,78,0.00,,,0.00,weatherlink.com 1.10,2013-12-30 23:39:00,
2013-12-30 18:09:00,13.5,8.0,30.21,SW,229,1.0,3.0,78,0.00,,,0.00,weatherlink.com 1.10,2013-12-31 00:09:00,
2013-12-30 18:24:00,13.6,8.0,30.20,West,265,0.0,3.0,78,0.00,,,0.00,weatherlink.com 1.10,2013-12-31 00:24:00,
2013-12-30 18:39:00,13.3,8.0,30.21,WSW,245,0.0,3.0,78,0.00,,,0.00,weatherlink.com 1.10,2013-12-31 00:39:00,
2013-12-30 18:53:00,13.3,8.0,30.21,WSW,257,0.0,3.0,80,0.00,,,0.00,weatherlink.com 1.10,2013-12-31 00:53:00,
2013-12-30 19:09:00,13.3,9.0,30.20,West,274,0.0,3.0,82,0.00,,,0.00,weatherlink.com 1.10,2013-12-31 01:09:00,
2013-12-30 19:25:00,13.2,9.0,30.20,WNW,292,0.0,2.0,83,0.00,,,0.00,weatherlink.com 1.10,2013-12-31 01:25:00,
2013-12-30 19:39:00,13.2,9.0,30.20,WNW,292,0.0,2.0,84,0.00,,,0.00,weatherlink.com 1.10,2013-12-31 01:39:00,
2013-12-30 19:54:00,13.0,9.0,30.21,WNW,291,1.0,2.0,84,0.00,,,0.00,weatherlink.com 1.10,2013-12-31 01:54:00,
2013-12-30 20:10:00,13.0,10.0,30.20,WNW,291,0.0,2.0,86,0.00,,,0.00,weatherlink.com 1.10,2013-12-31 02:10:00,
2013-12-30 20:25:00,13.0,10.0,30.20,WNW,298,2.0,3.0,86,0.00,,,0.00,weatherlink.com 1.10,2013-12-31 02:25:00,
2013-12-30 20:40:00,12.9,10.0,30.20,WNW,299,2.0,3.0,86,0.00,,,0.00,weatherlink.com 1.10,2013-12-31 02:40:00,
2013-12-30 20:55:00,12.8,9.0,30.20,WNW,299,0.0,2.0,86,0.00,,,0.00,weatherlink.com 1.10,2013-12-31 02:55:00,
2013-12-30 21:11:00,12.6,10.0,30.21,WNW,299,0.0,3.0,87,0.00,,,0.00,weatherlink.com 1.10,2013-12-31 03:11:00,
2013-12-30 21:25:00,12.6,10.0,30.21,NW,304,1.0,5.0,87,0.00,,,0.00,weatherlink.com 1.10,2013-12-31 03:25:00,
2013-12-30 21:42:00,12.6,10.0,30.21,NW,304,2.0,3.0,87,0.00,,,0.00,weatherlink.com 1.10,2013-12-31 03:42:00,
2013-12-30 21:56:00,12.5,9.0,30.20,WNW,302,0.0,3.0,87,0.00,,,0.00,weatherlink.com 1.10,2013-12-31 03:56:00,
2013-12-30 22:11:00,12.5,9.0,30.21,West,263,1.0,2.0,87,0.00,,,0.00,weatherlink.com 1.10,2013-12-31 04:11:00,
2013-12-30 22:26:00,12.1,9.0,30.21,West,269,1.0,3.0,87,0.00,,,0.00,weatherlink.com 1.10,2013-12-31 04:26:00,
2013-12-30 22:41:00,11.9,9.0,30.21,West,265,0.0,2.0,87,0.00,,,0.00,weatherlink.com 1.10,2013-12-31 04:41:00,
2013-12-30 22:56:00,11.9,9.0,30.20,West,261,1.0,3.0,87,0.00,,,0.00,weatherlink.com 1.10,2013-12-31 04:56:00,
2013-12-30 23:11:00,12.0,9.0,30.20,West,261,1.0,2.0,87,0.00,,,0.00,weatherlink.com 1.10,2013-12-31 05:11:00,
2013-12-30 23:27:00,12.0,9.0,30.20,West,261,1.0,2.0,87,0.00,,,0.00,weatherlink.com 1.10,2013-12-31 05:27:00,
2013-12-30 23:42:00,12.0,9.0,30.19,West,263,1.0,2.0,87,0.00,,,0.00,weatherlink.com 1.10,2013-12-31 05:42:00,
2013-12-30 23:57:00,12.0,9.0,30.18,West,263,0.0,1.0,88,0.00,,,0.00,weatherlink.com 1.10,2013-12-31 05:57:00,